Location: L�Ave Maria
(50.7161°N, 1.5911°E)
Time: 22:07:36
(UTC+00:00)

Cosmos 1328 Rocket - Pass Details

Date: 10 July 2020
Orbit: 602 x 627 km, 82.5° (Epoch: 14 August)

Event Time Altitude Azimuth Distance (km) Brightness Sun altitude
Rises 22:23:01 0° 352° (N) 2,868 8.6 -14.2°
Reaches altitude 10° 22:25:17 10° 357° (N) 1,959 7.3 -14.3°
Maximum altitude 22:29:33 56° 76° (ENE) 726 3.8 -14.6°
Enters shadow 22:31:54 25° 146° (SE) 1,243 4.5 -14.7°
